This demonstration page uses our WeatherBlox Daily Observations layout. Learn more.

Left ArrowRight Arrow

39.08367, -84.50855

Hourly Observations for December 10, 2020

Temp ( °F °C ) Dew Point ( °F °C ) Humidity (%) Winds ( mph kmh ) Pressure ( in mb ) Visibility ( mi km ) Precip ( " mm )
12:53 am 00:53 Clear 30 -1.1 29 -1.7 96 96 N N/A 30.05 1018 8 13 N/A
1:53 am 01:53 Clear with Mist and Fog 29 -1.7 28 -2.2 96 96 NNE 3 6 30.04 1017 6 10 N/A
2:44 am 02:44 Clear with Mist and Fog 27 -2.8 25 -3.9 92 92 N N/A 30.09 1019 2 3 N/A
2:53 am 02:53 Clear with Mist and Fog 28 -2.2 26 -3.3 92 92 N N/A 30.07 1018 1 2 N/A
3:02 am 03:02 Clear with Mist and Fog 28 -2.2 28 -2.2 100 100 N N/A 30.10 1019 3 4 N/A
3:18 am 03:18 Clear with Mist and Fog 28 -2.2 27 -2.8 96 96 NE 3 6 30.10 1019 3 5 N/A
3:43 am 03:43 Clear with Mist and Fog 27 -2.8 26 -3.3 96 96 N N/A 30.10 1019 3 4 N/A
3:53 am 03:53 Clear with Mist and Fog 28 -2.2 26 -3.3 92 92 N N/A 30.08 1019 2 2 N/A
4:05 am 04:05 Clear with Mist and Fog 27 -2.8 26 -3.3 96 96 N N/A 30.11 1020 3 5 N/A
4:38 am 04:38 Clear with Mist and Fog 27 -2.8 25 -3.9 92 92 N N/A 30.12 1020 2 3 N/A
4:53 am 04:53 Clear with Mist and Fog 28 -2.2 26 -3.3 92 92 N N/A 30.09 1019 1 2 N/A
5:35 am 05:35 Clear with Mist and Fog 25 -3.9 24 -4.4 96 96 N N/A 30.13 1020 3 5 N/A
5:53 am 05:53 Clear with Mist and Fog 26 -3.3 24 -4.4 92 92 N N/A 30.09 1019 4 6 N/A
6:21 am 06:21 Partly Cloudy with Mist and Fog 25 -3.9 22 -5.6 88 88 N N/A 30.14 1021 2 3 N/A
6:28 am 06:28 Mostly Cloudy with Mist and Fog 26 -3.3 23 -5 88 88 N N/A 30.14 1020 2 2 N/A
6:32 am 06:32 Mostly Cloudy with Mist and Fog 26 -3.3 23 -5 88 88 N N/A 30.14 1020 1 1 N/A
6:53 am 06:53 Mostly Cloudy with Freezing Fog 26 -3.3 25 -3.9 96 96 S 3 6 30.11 1020 0 0 N/A
7:05 am 07:05 Mostly Cloudy with Freezing Fog 26 -3.3 25 -3.9 96 96 N N/A 30.14 1020 1 1 N/A
7:53 am 07:53 Mostly Cloudy with Freezing Fog 27 -2.8 27 -2.8 100 100 N N/A 30.12 1020 N/A N/A
8:53 am 08:53 Mostly Cloudy with Freezing Fog 29 -1.7 28 -2.2 96 96 N N/A 30.14 1021 N/A N/A
9:53 am 09:53 Mostly Cloudy with Fog 32 undefined 32 undefined 100 100 N N/A 30.14 1021 0 0 N/A
10:19 am 10:19 Cloudy with Mist and Fog 33 0.6 33 0.6 100 100 N N/A 30.16 1021 1 1 N/A
10:32 am 10:32 Partly Cloudy with Mist and Fog 35 1.7 35 1.7 100 100 SW 3 6 30.15 1021 5 8 N/A
10:53 am 10:53 Sunny 38 3.3 37 2.8 97 97 N N/A 30.14 1021 7 11 N/A
11:53 am 11:53 Sunny 45 7.2 38 3.3 77 77 N N/A 30.11 1020 10 16 N/A
12:53 pm 12:53 Sunny 53 11.7 39 3.9 59 59 N N/A 30.08 1019 10 16 N/A
1:53 pm 13:53 Sunny 57 13.9 39 3.9 51 51 undefined N/A 30.06 1018 10 16 N/A
2:53 pm 14:53 Sunny 59 15 38 3.3 46 46 SSW 7 11 30.04 1017 10 16 N/A
3:53 pm 15:53 Sunny 59 15 37 2.8 44 44 SSE 6 9 30.03 1017 10 16 N/A
4:53 pm 16:53 Sunny 56 13.3 37 2.8 49 49 SSE 5 7 30.03 1017 10 16 N/A
5:53 pm 17:53 Clear 48 8.9 37 2.8 66 66 N N/A 30.04 1017 10 16 N/A
6:53 pm 18:53 Clear 40 4.4 35 1.7 83 83 N N/A 30.04 1017 10 16 N/A
7:53 pm 19:53 Clear 39 3.9 35 1.7 86 86 N N/A 30.05 1018 10 16 N/A
8:53 pm 20:53 Clear 37 2.8 35 1.7 93 93 N N/A 30.05 1018 10 16 N/A
9:53 pm 21:53 Clear 36 2.2 33 0.6 89 89 N N/A 30.04 1017 10 16 N/A
10:53 pm 22:53 Clear 34 1.1 32 undefined 92 92 N N/A 30.03 1017 10 16 N/A
11:53 pm 23:53 Clear 34 1.1 32 undefined 92 92 N N/A 30.03 1017 10 16 N/A

Powered by AerisWeather